Location: Bukit Nyuki
(2.5885°N, 113.7476°E)
Time: 06:44:47
(UTC+00:00)

ALOS - Pass Details

Date: 18 May 2021
Orbit: 682 x 685 km, 97.9° (Epoch: 18 June)

Event Time Altitude Azimuth Distance (km) Brightness Sun altitude
Rises 19:57:58 0° 19° (NNE) 3,029 6.2 -32.4°
Reaches altitude 10° 20:00:14 10° 23° (NNE) 2,116 5.3 -31.9°
Enters shadow 20:03:29 41° 48° (NE) 979 3.4 -31.2°
